STARLINK-3241 (49745 NORAD) Tracking and Keplerian Element Data

This shows tracking and keplerian element data for the satellite.

Feedback or suggestion? Click here.




ElementValue
Catalog49745
NameSTARLINK-3241
Epoch Orbit130
Epoch Day140.58334491
Epoch Year2022
RAAN265.0765
Inclination53.2159
Eccentricity0.0002237
Argument of Perigee31.6542
Mean Anonmoly24.821
Mean Motion15.08868204
Decay Rate-0.00030812
L11 49745U 21115X 22140.58334491 -.00030812 00000+0 -19246-2 0 9994
L22 49745 53.2159 265.0765 0002237 31.6542 24.8210 15.08868204 1305

Live tracking and technical data element details for STARLINK-3241 (NORAD 49745). STARLINK-3241 can be tracked NOW for your location showing map with azimuth and elevation plus other details from your city location.

Track the satellite on the map from your city or location and see movement details for azimuth, elevation, latitude, longitude, range, height, and movement on the map or in text.







IsCatalogInMostPopularTable: catalog: 49745, numindb: 22
Update: records affected: 1



GetName: 49745 STARLINK-3241

Hit Count: updated at: Mon, 23 May 2022 20:32:54 GMT